Great Falls, MT

7:30 PM MST on January 22, 2018 (GMT -0700)
Great Falls International

Weather History for KGTF - February, 2012

Change the Weather History Date:

Friday, February 24, 2012

  Actual Average Record
Temperature  
Mean Temperature 27 °F 29 °F  
Max Temperature 39 °F 40 °F 68 °F (1995)
Min Temperature 15 °F 17 °F -22 °F (1922)
Degree Days  
Heating Degree Days 38 36  
Month to date heating degree days 856 912  
Since 1 July heating degree days 4616 5363  
Cooling Degree Days 0 0  
Month to date cooling degree days 0 0  
Year to date cooling degree days 0 0  
Moisture  
Dew Point 17 °F    
Average Humidity 62    
Maximum Humidity 80    
Minimum Humidity 44    
Precipitation  
Precipitation 0.00 in 0.01 in 0.32 in (1917)
Month to date precipitation 0.31 0.39  
Year to date precipitation 0.61 0.90  
Snow  
Snow 0.00 in 0.30 in 4.00 in (1917)
Month to date snowfall 3.2 7.0  
Since 1 July snowfall 18.8 38.8  
Snow Depth 1.00 in    
Sea Level Pressure  
Sea Level Pressure 30.11 in    
Wind  
Wind Speed 11 mph (SSW)    
Max Wind Speed 24 mph    
Max Gust Speed 29 mph    
Visibility 10 miles    
Events      
T = Trace of Precipitation, MM = Missing Value Source: NWS Daily Summary

Daily Weather History Graph

Daily Weather History Graph

Search for Another Location

Airport or City:

Trip Planner

Search our weather history database for the weather conditions in past years. The results will help you decide how hot, cold, wet, or windy it might be!

Date:

Astronomy

Feb. 24, 2012 Rise Set
Actual Time 7:15 AM MST 6:02 PM MST
Civil Twilight 6:44 AM MST 6:33 PM MST
Nautical Twilight 6:09 AM MST 7:09 PM MST
Astronomical Twilight 5:33 AM MST 7:44 PM MST
Moon 7:56 AM MST (2/24) 9:27 PM MST (2/24)
Length of Visible Light 11h 48m
Length of Day
10h 46m
Waxing Crescent, 8% of the Moon is Illuminated
Feb 24
Waxing Crescent
Feb 29
First Quarter
Mar 8
Full
Mar 14
Last Quarter
Mar 22
New

Hourly Weather History & Observations

Time (MST) Temp. Windchill Dew Point Humidity Pressure Visibility Wind Dir Wind Speed Gust Speed Precip Events Conditions
12:53 AM 21.9 °F 11.0 °F 14.0 °F 72% 30.17 in 10.0 mi SW 10.4 mph - N/A   Mostly Cloudy
1:53 AM 24.1 °F 13.1 °F 15.1 °F 69% 30.17 in 10.0 mi SW 11.5 mph - N/A   Overcast
2:53 AM 21.0 °F 16.2 °F 14.0 °F 74% 30.22 in 10.0 mi NNW 3.5 mph - N/A   Overcast
3:53 AM 21.0 °F - 12.9 °F 71% 30.22 in 10.0 mi Calm Calm - N/A   Overcast
4:53 AM 18.0 °F 11.1 °F 10.9 °F 74% 30.24 in 10.0 mi SSW 4.6 mph - N/A   Partly Cloudy
5:53 AM 16.0 °F 6.3 °F 10.0 °F 77% 30.27 in 10.0 mi SW 6.9 mph - N/A   Partly Cloudy
6:53 AM 17.1 °F 10.0 °F 10.0 °F 74% 30.29 in 10.0 mi SW 4.6 mph - 0.01 in   Partly Cloudy
7:53 AM 23.0 °F 15.8 °F 16.0 °F 74% 30.29 in 10.0 mi South 5.8 mph - N/A   Overcast
8:53 AM 27.0 °F 21.6 °F 17.1 °F 66% 30.28 in 10.0 mi South 4.6 mph - N/A   Overcast
9:53 AM 30.0 °F 25.2 °F 16.0 °F 56% 30.26 in 10.0 mi South 4.6 mph - 0.01 in   Scattered Clouds
10:53 AM 32.0 °F 24.2 °F 19.9 °F 61% 30.24 in 10.0 mi SW 9.2 mph - N/A   Clear
11:53 AM 35.1 °F 26.9 °F 19.9 °F 54% 30.20 in 10.0 mi WSW 11.5 mph - 0.01 in   Clear
12:53 PM 36.0 °F 26.3 °F 16.0 °F 44% 30.18 in 10.0 mi SW 16.1 mph - N/A   Mostly Cloudy
1:53 PM 37.9 °F 27.9 °F 19.0 °F 47% 30.13 in 10.0 mi SSW 19.6 mph 26.5 mph N/A   Mostly Cloudy
2:53 PM 37.9 °F 27.3 °F 18.0 °F 45% 30.12 in 10.0 mi SW 21.9 mph 27.6 mph N/A   Clear
3:53 PM 37.0 °F 28.1 °F 18.0 °F 46% 30.10 in 10.0 mi SW 15.0 mph - N/A   Overcast
4:53 PM 37.0 °F 29.8 °F 19.0 °F 48% 30.06 in 10.0 mi SSW 10.4 mph - N/A   Overcast
5:53 PM 36.0 °F 30.3 °F 19.9 °F 52% 30.05 in 10.0 mi SSE 6.9 mph - N/A   Partly Cloudy
6:53 PM 34.0 °F 27.2 °F 21.0 °F 59% 30.00 in 10.0 mi South 8.1 mph - N/A   Mostly Cloudy
7:53 PM 37.9 °F 30.5 °F 21.0 °F 51% 29.93 in 10.0 mi South 11.5 mph - N/A   Overcast
8:53 PM 39.0 °F 31.8 °F 19.9 °F 46% 29.87 in 10.0 mi South 11.5 mph - N/A   Overcast
9:53 PM 39.0 °F 29.0 °F 19.9 °F 46% 29.81 in 10.0 mi South 20.7 mph 28.8 mph N/A   Partly Cloudy
10:53 PM 37.9 °F 28.2 °F 19.9 °F 48% 29.76 in 10.0 mi South 18.4 mph 27.6 mph N/A   Scattered Clouds
11:53 PM 37.9 °F 28.2 °F 21.0 °F 51% 29.70 in 10.0 mi South 18.4 mph - N/A   Clear